User: anonymous   Login
Location: McDonald Observatory
(30.6717°N, 104.0221°W)
Time: 21:24:21
(UTC-05:00)
Language:

Cosmos 1484 Rocket - Orbit

View from above orbital plane
View from above orbital plane
View from above satellite
View from above satellite

Ground track
Ground track

The orbit data is extracted from the following two-line orbital elements,

1 14208U 83075B   17146.57070712 +.00000452 +00000-0 +30870-4 0  9999
2 14208 097.3409 158.0265 0038718 203.4774 156.4690 15.10371455843941
Epoch (UTC): 26 May 2017 13:41:49
Eccentricity: 0.0038718
inclination: 97.3409°
perigee height: 508 km
apogee height: 562 km
right ascension of ascending node: 158.0265°
argument of perigee: 203.4774°
revolutions per day: 15.10371455
mean anomaly at epoch: 156.4690°
orbit number at epoch: 84394

The dashed part of the orbit path shows where the satellite is in the earth's shadow,  

DLR